Location: Pinawa
(50.1500°N, 95.8830°W)
Time: 20:46:30
(UTC-05:00)

Amateur Radio Satellites - All Passes

Search period start: 26 June 2017 20:16
Search period end: 27 June 2017 20:16
Location: Pinawa, 50.1500°N, 95.8830°W

Satellite Date Start Highest point End Downlink Frequencies (MHz)
Time Altitude Azimuth
SEEDS 26 Jun 20:17:16 20:21:28 71° 259° (W) 20:25:39 437.485
PCSat 26 Jun 20:19:38 20:24:48 41° 43° (NE) 20:29:55 145.827
CUTE 1.7 + AOD 2 26 Jun 20:37:49 20:41:35 30° 265° (W) 20:45:22 437.475
AO-85 26 Jun 20:44:39 20:47:54 24° 117° (ESE) 20:51:06 145.980
DELFI C3 26 Jun 20:46:16 20:48:30 15° 60° (ENE) 20:50:45 145.870
HO-68 26 Jun 20:47:11 20:53:49 39° 264° (W) 21:00:30 435.675
AO-73 26 Jun 20:48:20 20:52:51 65° 73° (ENE) 20:57:26 145.935
XW-2A 26 Jun 20:52:10 20:54:53 21° 266° (W) 20:57:37 145.665 - 145.685
STRAND 1 26 Jun 21:01:33 21:06:45 76° 104° (ESE) 21:11:53 437.568
CUBEBUG 2 26 Jun 21:01:46 21:06:03 36° 265° (W) 21:10:27 437.445
AAUSAT CUBESAT 2 26 Jun 21:04:38 21:08:37 46° 261° (W) 21:12:36 437.432
Oscar 11 26 Jun 21:14:11 21:18:32 90° 71° (ENE) 21:22:55 .
NO-84 26 Jun 21:16:51 21:17:49 11° 124° (SE) 21:18:47 435.350 FM
FO-29 26 Jun 21:19:13 21:23:10 14° 79° (E) 21:27:07 435.910
ZACube-1 26 Jun 21:24:18 21:28:47 55° 260° (W) 21:33:19 437.345
EO-88 26 Jun 21:24:46 21:27:41 23° 65° (ENE) 21:30:37 145.990 - 145.960
UWE-3 26 Jun 21:33:03 21:37:05 29° 266° (W) 21:41:11 435.000/436.395/437.385
BEESAT 3 26 Jun 21:35:08 21:38:55 43° 122° (ESE) 21:42:46 437.485
YUBILEINY 26 Jun 21:36:13 21:43:46 34° 82° (E) 21:51:20 435.215
RS-15 26 Jun 21:41:22 21:53:14 62° 118° (ESE) 22:05:17 29.354- 29.394
O/OREOS (USA 219) 26 Jun 21:41:49 21:45:43 29° 106° (ESE) 21:49:37 437.305
SO-50 26 Jun 21:55:05 21:59:15 34° 36° (NE) 22:03:25 436.795
PCSat 26 Jun 22:03:07 22:08:17 45° 243° (WSW) 22:13:24 145.827
ESTCUBE 1 26 Jun 22:12:24 22:14:12 12° 54° (NE) 22:15:59 437.505/2401.250
M-CUBED/EXP-1 PRIME 26 Jun 22:16:10 22:18:15 14° 98° (E) 22:20:23 437.505
DELFI C3 26 Jun 22:18:55 22:22:49 66° 259° (W) 22:26:44 145.870
UNISAT 6 26 Jun 22:20:37 22:23:43 17° 89° (E) 22:26:46 437.425
AO-85 26 Jun 22:24:12 22:28:04 47° 316° (NW) 22:31:53 145.980
AO-73 26 Jun 22:26:28 22:29:32 18° 271° (W) 22:32:36 145.935
BEESAT 2 26 Jun 22:37:00 22:40:57 65° 126° (SE) 22:44:59 435.950
PRISM 26 Jun 22:41:19 22:44:37 23° 94° (E) 22:47:54 437.425
STRAND 1 26 Jun 22:41:40 22:45:23 20° 303° (WNW) 22:49:05 437.568
NO-84 26 Jun 22:50:36 22:54:30 53° 143° (SE) 22:58:40 435.350 FM
Oscar 11 26 Jun 22:53:52 22:55:19 11° 274° (W) 22:56:47 .
EO-88 26 Jun 22:57:50 23:01:12 34° 263° (W) 23:04:36 145.990 - 145.960
FO-29 26 Jun 23:01:58 23:09:43 61° 100° (E) 23:17:25 435.910
BEESAT 3 26 Jun 23:13:00 23:16:37 31° 322° (NW) 23:20:17 437.485
TIGRISAT 26 Jun 23:13:41 23:18:13 47° 98° (E) 23:22:39 435.000
LO-87 26 Jun 23:15:29 23:18:59 56° 73° (ENE) 23:22:32 145.935 - 145.965
O/OREOS (USA 219) 26 Jun 23:20:42 23:25:00 40° 305° (NW) 23:29:17 437.305
YUBILEINY 26 Jun 23:31:12 23:39:59 68° 285° (WNW) 23:48:50 435.215
SO-50 26 Jun 23:35:31 23:39:52 47° 237° (WSW) 23:44:13 436.795
VELOX 1 26 Jun 23:42:17 23:45:37 22° 61° (ENE) 23:48:59 145.980
ESTCUBE 1 26 Jun 23:45:45 23:50:14 75° 74° (ENE) 23:54:45 437.505/2401.250
M-CUBED/EXP-1 PRIME 26 Jun 23:49:20 23:52:58 62° 294° (WNW) 23:56:52 437.505
SPROUT 26 Jun 23:51:57 23:55:32 27° 64° (ENE) 23:59:09 437.525
RS-15 26 Jun 23:53:56 00:06:06 60° 325° (NW) 00:18:19 29.354- 29.394
UNISAT 6 26 Jun 23:56:14 00:00:54 67° 288° (WNW) 00:05:28 437.425
DX 1 26 Jun 23:58:48 00:00:45 13° 55° (NE) 00:02:41 434.975-435.025
AIST 2D 27 Jun 00:05:05 00:07:54 22° 94° (E) 00:10:41 435.315
AO-85 27 Jun 00:07:13 00:09:23 14° 339° (NNW) 00:11:33 145.980
UKube-1 27 Jun 00:13:05 00:14:51 12° 54° (NE) 00:16:38 .
BEESAT 2 27 Jun 00:15:41 00:19:04 25° 327° (NNW) 00:22:28 435.950
PRISM 27 Jun 00:16:11 00:20:03 40° 292° (WNW) 00:23:54 437.425
50 SAT 27 Jun 00:24:35 00:27:09 20° 64° (ENE) 00:29:44 437.505
POLYITAN 1 27 Jun 00:27:22 00:30:41 21° 92° (E) 00:33:58 437.675
NO-84 27 Jun 00:28:05 00:32:10 54° 344° (NNW) 00:36:27 435.350 FM
QB50P2 27 Jun 00:37:59 00:41:45 29° 95° (E) 00:45:28 145.880/145.840
FO-29 27 Jun 00:47:21 00:54:24 40° 300° (WNW) 01:01:32 435.910
TIGRISAT 27 Jun 00:50:49 00:54:39 25° 298° (WNW) 00:58:26 435.000
LO-87 27 Jun 00:51:03 00:52:47 13° 271° (W) 00:54:32 145.935 - 145.965
BEESAT 3 27 Jun 00:53:41 00:55:23 12° 345° (NNW) 00:57:06 437.485
EO-79 27 Jun 01:01:44 01:05:52 45° 99° (E) 01:09:57 145.935-145.965
DUCHIFAT 1 27 Jun 01:13:52 01:18:02 48° 99° (E) 01:22:08 145.980
VELOX 1 27 Jun 01:17:30 01:21:46 52° 260° (W) 01:26:05 145.980
NANOSAT C BR1 27 Jun 01:23:11 01:27:29 67° 103° (ESE) 01:31:42 145.865
ESTCUBE 1 27 Jun 01:25:05 01:27:35 15° 272° (W) 01:30:05 437.505/2401.250
SPROUT 27 Jun 01:27:18 01:31:18 38° 263° (W) 01:35:21 437.525
DX 1 27 Jun 01:31:55 01:36:14 83° 77° (ENE) 01:40:36 434.975-435.025
YUBILEINY 27 Jun 01:32:51 01:38:49 19° 310° (NW) 01:44:48 435.215
UNISAT 6 27 Jun 01:35:07 01:36:43 12° 307° (NW) 01:38:19 437.425
AIST 2D 27 Jun 01:38:02 01:41:09 30° 292° (WNW) 01:44:14 435.315
UKube-1 27 Jun 01:45:53 01:50:10 81° 76° (ENE) 01:54:30 .
AO-85 27 Jun 01:51:00 01:51:30 10° 5° (N) 01:51:59 145.980
50 SAT 27 Jun 01:56:45 01:59:47 31° 262° (W) 02:02:52 437.505
BEESAT 2 27 Jun 01:56:54 01:58:12 11° 350° (N) 01:59:30 435.950
Oscar 19 27 Jun 02:00:38 02:04:37 22° 91° (E) 02:08:34 437.125/150
POLYITAN 1 27 Jun 02:02:34 02:06:42 47° 291° (WNW) 02:10:47 437.675
ITUPSAT 1 27 Jun 02:03:53 02:07:12 19° 57° (ENE) 02:10:31 437.325
NO-84 27 Jun 02:06:11 02:10:19 44° 5° (N) 02:14:32 435.350 FM
RS-15 27 Jun 02:10:05 02:21:35 41° 357° (N) 02:32:52 29.354- 29.394
BEESAT 27 Jun 02:12:23 02:16:02 22° 59° (ENE) 02:19:41 436.000
QB50P2 27 Jun 02:13:40 02:17:34 34° 294° (WNW) 02:21:27 145.880/145.840
BUGSAT 1 27 Jun 02:17:38 02:21:55 72° 103° (ESE) 02:26:09 437.445
BEESAT 3 27 Jun 02:33:35 02:34:43 11° 9° (N) 02:35:50 437.485
FO-29 27 Jun 02:34:34 02:37:28 13° 322° (NW) 02:40:24 435.910
EO-79 27 Jun 02:37:59 02:41:23 23° 298° (WNW) 02:44:47 145.935-145.965
DUCHIFAT 1 27 Jun 02:50:08 02:53:25 22° 298° (WNW) 02:56:40 145.980
NANOSAT C BR1 27 Jun 02:59:57 03:02:43 17° 301° (WNW) 03:05:28 145.865
MOZHAYETS 4 27 Jun 03:05:38 03:09:54 38° 67° (ENE) 03:14:11
Gurwin Techsat 1B 27 Jun 03:05:56 03:11:08 50° 100° (E) 03:16:18 435.225
DX 1 27 Jun 03:11:11 03:13:02 12° 272° (W) 03:14:52 434.975-435.025
UKube-1 27 Jun 03:24:50 03:26:47 13° 272° (W) 03:28:43 .
AO-85 27 Jun 03:30:23 03:33:24 20° 30° (NNE) 03:36:30 145.980
BEESAT 2 27 Jun 03:35:59 03:37:42 12° 14° (NNE) 03:39:25 435.950
Oscar 19 27 Jun 03:39:17 03:44:20 60° 290° (WNW) 03:49:22 437.125/150
ITUPSAT 1 27 Jun 03:39:41 03:44:30 75° 256° (WSW) 03:49:21 437.325
NO-84 27 Jun 03:43:55 03:48:19 81° 27° (NNE) 03:52:42 435.350 FM
BEESAT 27 Jun 03:48:41 03:53:25 61° 258° (WSW) 03:58:12 436.000
CUBESAT XI-V 27 Jun 03:51:36 03:55:18 24° 62° (ENE) 03:58:59 437.345
BUGSAT 1 27 Jun 03:54:08 03:56:46 16° 302° (WNW) 03:59:24 437.445
BEESAT 3 27 Jun 04:10:22 04:13:41 24° 32° (NNE) 04:16:58 437.485
AO-7 27 Jun 04:10:41 04:18:08 34° 95° (E) 04:25:30 .
ITAMSAT 1 27 Jun 04:20:19 04:25:04 33° 96° (E) 04:29:46 435.822/435.867
RS-15 27 Jun 04:25:14 04:37:20 54° 30° (NNE) 04:48:54 29.354- 29.394
KKS-1 27 Jun 04:27:36 04:31:38 35° 66° (ENE) 04:35:42 437.445
MOZHAYETS 4 27 Jun 04:43:02 04:47:07 30° 265° (W) 04:51:14
Gurwin Techsat 1B 27 Jun 04:46:18 04:50:52 30° 299° (WNW) 04:55:25 435.225
STARS 27 Jun 04:52:52 04:56:40 29° 64° (ENE) 05:00:29 437.465
AO-85 27 Jun 05:10:15 05:14:19 88° 50° (NE) 05:18:37 145.980
BEESAT 2 27 Jun 05:13:01 05:16:41 31° 37° (NE) 05:20:19 435.950
Oscar 19 27 Jun 05:20:48 05:22:40 12° 310° (NW) 05:24:32 437.125/150
NO-84 27 Jun 05:21:52 05:25:38 28° 225° (SW) 05:29:19 435.350 FM
ITUPSAT 1 27 Jun 05:22:06 05:23:11 11° 275° (W) 05:24:16 437.325
CUBESAT XI-V 27 Jun 05:27:54 05:32:24 50° 261° (W) 05:36:55 437.345
BEESAT 3 27 Jun 05:47:38 05:51:39 69° 233° (SW) 05:55:37 437.485
ITAMSAT 1 27 Jun 05:59:42 06:04:37 42° 295° (WNW) 06:09:30 435.822/435.867
AO-7 27 Jun 06:03:11 06:11:30 69° 296° (WNW) 06:19:48 .
KKS-1 27 Jun 06:04:19 06:08:14 30° 264° (W) 06:12:11 437.445
O/OREOS (USA 219) 27 Jun 06:07:44 06:11:12 21° 46° (NE) 06:14:38 437.305
STARS 27 Jun 06:28:50 06:32:54 37° 262° (W) 06:37:01 437.465
DOVE 4 27 Jun 06:33:25 06:37:59 37° 97° (E) 06:42:44 437.250
XW-2F 27 Jun 06:35:32 06:37:37 14° 89° (E) 06:39:41 145.980 - 146.000
RS-15 27 Jun 06:38:28 06:50:36 72° 238° (WSW) 07:02:07 29.354- 29.394
XW-2D 27 Jun 06:40:24 06:42:58 17° 91° (E) 06:45:31 145.860 - 145.880
STRAND 1 27 Jun 06:43:57 06:48:19 29° 61° (ENE) 06:52:42 437.568
XW-2B 27 Jun 06:49:13 06:52:06 20° 92° (E) 06:54:58 145.730 - 145.750
LilacSat-2 27 Jun 06:50:30 06:53:34 22° 93° (E) 06:56:35 437.200
BEESAT 2 27 Jun 06:50:41 06:54:36 45° 237° (WSW) 06:58:28 435.950
AO-85 27 Jun 06:52:07 06:54:10 13° 248° (WSW) 06:56:16 145.980
XW-2C 27 Jun 07:04:28 07:07:50 30° 96° (E) 07:11:09 145.795 - 145.815
KAITUO 1B 27 Jun 07:14:12 07:17:29 29° 95° (E) 07:20:46 145.475/437.950
CUTE-I 27 Jun 07:15:26 07:20:24 37° 96° (E) 07:25:21 437.470
FO-29 27 Jun 07:39:11 07:41:51 13° 38° (NE) 07:44:35 435.910
YUBILEINY 27 Jun 07:39:19 07:46:03 23° 54° (NE) 07:52:41 435.215
O/OREOS (USA 219) 27 Jun 07:46:36 07:51:03 65° 246° (WSW) 07:55:28 437.305
NUDT-PHONESAT 27 Jun 07:47:04 07:50:46 69° 102° (ESE) 07:54:26 437.300
AO-7 27 Jun 07:56:52 08:02:56 23° 319° (NW) 08:09:01 .
SEEDS 27 Jun 07:57:36 07:59:51 14° 88° (E) 08:02:06 437.485
XW-2F 27 Jun 08:08:25 08:12:07 55° 287° (WNW) 08:15:45 145.980 - 146.000
HO-68 27 Jun 08:09:01 08:15:32 35° 95° (E) 08:21:59 435.675
XW-2A 27 Jun 08:09:15 08:11:34 17° 92° (E) 08:13:52 145.665 - 145.685
DOVE 4 27 Jun 08:11:14 08:15:37 35° 294° (WNW) 08:20:13 437.250
XW-2D 27 Jun 08:13:47 08:17:25 45° 289° (WNW) 08:21:00 145.860 - 145.880
CUTE 1.7 + AOD 2 27 Jun 08:17:28 08:21:17 32° 96° (E) 08:25:04 437.475
STRAND 1 27 Jun 08:22:17 08:27:16 49° 260° (W) 08:32:19 437.568
XW-2B 27 Jun 08:22:56 08:26:27 37° 291° (WNW) 08:29:56 145.730 - 145.750
LilacSat-2 27 Jun 08:24:28 08:27:56 34° 292° (WNW) 08:31:23 437.200
Tancredo 1 27 Jun 08:30:29 08:32:56 22° 144° (SE) 08:35:22 437.200
XW-2C 27 Jun 08:38:46 08:41:57 26° 294° (WNW) 08:45:08 145.795 - 145.815
AAUSAT CUBESAT 2 27 Jun 08:42:25 08:45:27 20° 91° (E) 08:48:28 437.432
TIGRISAT 27 Jun 08:43:06 08:44:59 12° 53° (NE) 08:46:52 435.000
CUBEBUG 2 27 Jun 08:47:32 08:51:57 38° 96° (E) 08:56:16 437.445
KAITUO 1B 27 Jun 08:48:19 08:51:27 26° 294° (WNW) 08:54:32 145.475/437.950
RS-15 27 Jun 08:52:41 09:00:43 21° 263° (W) 09:08:34 29.354- 29.394
CUTE-I 27 Jun 08:55:30 09:00:29 40° 296° (WNW) 09:05:28 437.470
Oscar 11 27 Jun 08:58:28 09:00:17 12° 87° (E) 09:02:07 .
M-CUBED/EXP-1 PRIME 27 Jun 09:06:00 09:08:58 34° 62° (ENE) 09:11:59 437.505
ZACube-1 27 Jun 09:08:28 09:12:00 22° 91° (E) 09:15:26 437.345
ISS 27 Jun 09:11:22 09:14:12 27° 146° (SE) 09:17:03 437.550
UWE-3 27 Jun 09:17:17 09:21:44 44° 98° (E) 09:26:02 435.000/436.395/437.385
FO-29 27 Jun 09:18:58 09:24:58 43° 62° (ENE) 09:31:41 435.910
NUDT-PHONESAT 27 Jun 09:22:23 09:24:11 13° 301° (WNW) 09:25:58 437.300
UNISAT 6 27 Jun 09:23:18 09:27:11 27° 63° (ENE) 09:31:07 437.425
SEEDS 27 Jun 09:31:52 09:36:01 68° 286° (WNW) 09:40:09 437.485
PRISM 27 Jun 09:34:43 09:38:17 30° 65° (ENE) 09:41:52 437.425
YUBILEINY 27 Jun 09:35:33 09:44:28 80° 79° (E) 09:53:17 435.215
XW-2A 27 Jun 09:41:17 09:44:29 37° 290° (WNW) 09:47:38 145.665 - 145.685
DELFI C3 27 Jun 09:53:01 09:54:25 12° 87° (E) 09:55:50 145.870
CUTE 1.7 + AOD 2 27 Jun 09:53:24 09:57:04 29° 294° (WNW) 10:00:43 437.475
HO-68 27 Jun 09:56:35 10:03:36 58° 296° (WNW) 10:10:34 435.675
Tancredo 1 27 Jun 10:05:10 10:08:13 86° 169° (SSE) 10:11:16 437.200
AO-73 27 Jun 10:07:49 10:12:18 73° 102° (ESE) 10:16:38 145.935
TIGRISAT 27 Jun 10:16:12 10:20:49 70° 73° (ENE) 10:25:32 435.000
AAUSAT CUBESAT 2 27 Jun 10:17:12 10:21:10 47° 289° (WNW) 10:25:06 437.432
EO-88 27 Jun 10:22:38 10:24:49 15° 90° (E) 10:27:00 145.990 - 145.960
CUBEBUG 2 27 Jun 10:24:18 10:28:29 31° 295° (WNW) 10:32:33 437.445
Oscar 11 27 Jun 10:32:42 10:37:02 82° 285° (WNW) 10:41:19 .
M-CUBED/EXP-1 PRIME 27 Jun 10:41:19 10:43:36 18° 261° (W) 10:45:54 437.505
AIST 2D 27 Jun 10:44:05 10:46:36 18° 64° (ENE) 10:49:06 435.315
ZACube-1 27 Jun 10:44:13 10:48:32 47° 291° (WNW) 10:52:44 437.345
NANOSAT C BR1 27 Jun 10:46:25 10:48:25 13° 56° (NE) 10:50:25 145.865
ISS 27 Jun 10:47:09 10:50:27 87° 343° (NNW) 10:53:45 437.550
UWE-3 27 Jun 10:54:08 10:57:57 26° 297° (WNW) 11:01:41 435.000/436.395/437.385
UNISAT 6 27 Jun 10:59:13 11:03:41 45° 262° (W) 11:08:13 437.425
FO-29 27 Jun 11:03:59 11:10:00 45° 265° (W) 11:16:48 435.910
PRISM 27 Jun 11:09:58 11:13:33 30° 264° (W) 11:17:10 437.425
PCSat 27 Jun 11:09:59 11:11:37 11° 101° (ESE) 11:13:15 145.827
POLYITAN 1 27 Jun 11:23:57 11:27:40 29° 65° (ENE) 11:31:25 437.675
DELFI C3 27 Jun 11:25:46 11:29:43 77° 286° (WNW) 11:33:39 145.870
YUBILEINY 27 Jun 11:33:20 11:40:20 28° 282° (WNW) 11:47:19 435.215
QB50P2 27 Jun 11:34:36 11:38:34 39° 68° (ENE) 11:42:34 145.880/145.840
ESTCUBE 1 27 Jun 11:35:37 11:37:06 11° 86° (E) 11:38:34 437.505/2401.250
BUGSAT 1 27 Jun 11:38:48 11:40:45 13° 56° (NE) 11:42:41 437.445
Tancredo 1 27 Jun 11:40:53 11:43:54 63° 3° (N) 11:46:56 437.200
AO-73 27 Jun 11:45:10 11:48:00 17° 302° (WNW) 11:50:46 145.935
HO-68 27 Jun 11:45:44 11:49:56 17° 318° (NW) 11:54:08 435.675
Oscar 19 27 Jun 11:47:38 11:48:24 10° 48° (NE) 11:49:11 437.125/150
TIGRISAT 27 Jun 11:55:01 11:58:01 17° 272° (W) 12:01:02 435.000
EO-88 27 Jun 11:55:14 11:58:47 49° 289° (WNW) 12:02:19 145.990 - 145.960
EO-79 27 Jun 11:58:05 12:02:17 60° 72° (ENE) 12:06:31 145.935-145.965
DUCHIFAT 1 27 Jun 12:09:35 12:13:47 65° 73° (ENE) 12:18:02 145.980
Oscar 11 27 Jun 12:10:41 12:12:28 12° 304° (NW) 12:14:15 .
LO-87 27 Jun 12:11:09 12:14:34 36° 98° (E) 12:17:58 145.935 - 145.965
AIST 2D 27 Jun 12:16:11 12:19:33 40° 262° (W) 12:22:56 435.315
NANOSAT C BR1 27 Jun 12:19:13 12:23:28 88° 72° (ENE) 12:27:47 145.865
ISS 27 Jun 12:23:47 12:27:04 67° 5° (N) 12:30:22 437.550
PCSat 27 Jun 12:48:36 12:53:58 65° 121° (ESE) 12:59:22 145.827
Gurwin Techsat 1B 27 Jun 12:53:31 12:57:35 23° 57° (ENE) 13:01:39 435.225
POLYITAN 1 27 Jun 12:59:27 13:03:23 34° 263° (W) 13:07:21 437.675
VELOX 1 27 Jun 13:03:07 13:06:31 21° 92° (E) 13:09:55 145.980
DELFI C3 27 Jun 13:03:23 13:03:47 10° 304° (NW) 13:04:10 145.870
SPROUT 27 Jun 13:08:13 13:11:50 26° 94° (E) 13:15:26 437.525
ESTCUBE 1 27 Jun 13:10:05 13:14:36 87° 101° (E) 13:19:05 437.505/2401.250
QB50P2 27 Jun 13:10:54 13:14:29 25° 266° (W) 13:18:05 145.880/145.840
BUGSAT 1 27 Jun 13:11:16 13:15:26 89° 83° (E) 13:19:41 437.445
50 SAT 27 Jun 13:16:03 13:16:57 11° 89° (E) 13:17:51 437.505
Tancredo 1 27 Jun 13:16:30 13:19:31 61° 203° (SSW) 13:22:31 437.200
DX 1 27 Jun 13:18:09 13:18:50 10° 86° (E) 13:19:31 434.975-435.025
Oscar 19 27 Jun 13:21:39 13:26:37 51° 68° (ENE) 13:31:36 437.125/150
AO-7 27 Jun 13:25:16 13:31:14 23° 40° (NE) 13:37:12 .
EO-79 27 Jun 13:35:41 13:38:27 17° 270° (W) 13:41:15 145.935-145.965
LO-87 27 Jun 13:45:01 13:47:49 21° 296° (WNW) 13:50:36 145.935 - 145.965
DUCHIFAT 1 27 Jun 13:47:19 13:49:54 16° 271° (W) 13:52:29 145.980
SO-50 27 Jun 13:55:07 13:58:07 18° 113° (ESE) 14:01:09 436.795
NANOSAT C BR1 27 Jun 13:58:26 13:59:49 11° 274° (W) 14:01:13 145.865
ISS 27 Jun 14:00:20 14:03:34 55° 205° (SSW) 14:06:48 437.550
ITAMSAT 1 27 Jun 14:06:08 14:09:12 16° 52° (NE) 14:12:17 435.822/435.867
Gurwin Techsat 1B 27 Jun 14:31:46 14:37:04 69° 257° (WSW) 14:42:24 435.225
PCSat 27 Jun 14:32:56 14:37:47 32° 322° (NW) 14:42:38 145.827
VELOX 1 27 Jun 14:38:56 14:43:14 50° 290° (WNW) 14:47:32 145.980
SPROUT 27 Jun 14:43:50 14:47:51 39° 292° (WNW) 14:51:52 437.525
50 SAT 27 Jun 14:46:45 14:50:08 62° 287° (WNW) 14:53:31 437.505
ESTCUBE 1 27 Jun 14:48:18 14:50:48 15° 304° (WNW) 14:53:16 437.505/2401.250
BUGSAT 1 27 Jun 14:50:18 14:51:28 11° 274° (W) 14:52:37 437.445
DX 1 27 Jun 14:51:20 14:55:44 82° 104° (ESE) 15:00:07 434.975-435.025
Tancredo 1 27 Jun 14:52:57 14:54:38 14° 221° (SW) 14:56:16 437.200
Oscar 19 27 Jun 15:01:55 15:06:12 26° 267° (W) 15:10:32 437.125/150
UKube-1 27 Jun 15:04:00 15:08:21 76° 105° (ESE) 15:12:40 .
AO-7 27 Jun 15:14:23 15:22:37 68° 63° (ENE) 15:30:54 .
SO-50 27 Jun 15:33:31 15:38:04 78° 311° (NW) 15:42:37 436.795
ITUPSAT 1 27 Jun 15:36:09 15:39:42 20° 91° (E) 15:43:14 437.325
ISS 27 Jun 15:37:53 15:39:30 13° 223° (SW) 15:41:07 437.550
ITAMSAT 1 27 Jun 15:42:41 15:47:53 80° 73° (ENE) 15:53:09 435.822/435.867
BEESAT 27 Jun 15:44:24 15:48:19 24° 93° (E) 15:52:10 436.000
Gurwin Techsat 1B 27 Jun 16:16:38 16:18:01 11° 276° (W) 16:19:26 435.225
PCSat 27 Jun 16:19:57 16:22:56 15° 347° (NNW) 16:25:55 145.827
DX 1 27 Jun 16:28:50 16:31:20 15° 304° (WNW) 16:33:51 434.975-435.025
MOZHAYETS 4 27 Jun 16:32:34 16:36:59 45° 98° (E) 16:41:22
UKube-1 27 Jun 16:41:14 16:43:50 16° 303° (WNW) 16:46:27 .
HO-68 27 Jun 17:00:07 17:03:05 13° 37° (NE) 17:06:05 435.675
CUTE-I 27 Jun 17:04:18 17:07:48 18° 54° (NE) 17:11:19 437.470
AO-7 27 Jun 17:08:32 17:15:57 35° 265° (W) 17:23:27 .
ITUPSAT 1 27 Jun 17:13:11 17:17:56 60° 290° (WNW) 17:22:37 437.325
SO-50 27 Jun 17:15:42 17:19:13 22° 334° (NNW) 17:22:44 436.795
CUBESAT XI-V 27 Jun 17:19:42 17:23:42 29° 94° (E) 17:27:41 437.345
XW-2F 27 Jun 17:20:58 17:23:14 15° 61° (ENE) 17:25:29 145.980 - 146.000
BEESAT 27 Jun 17:21:43 17:26:21 50° 292° (WNW) 17:30:56 436.000
ITAMSAT 1 27 Jun 17:24:39 17:28:00 17° 272° (W) 17:31:22 435.822/435.867
XW-2D 27 Jun 17:26:08 17:28:47 18° 62° (ENE) 17:31:26 145.860 - 145.880
XW-2B 27 Jun 17:34:53 17:37:48 21° 64° (ENE) 17:40:44 145.730 - 145.750
LilacSat-2 27 Jun 17:36:43 17:39:49 23° 65° (ENE) 17:42:55 437.200
DOVE 4 27 Jun 17:43:40 17:47:46 55° 71° (ENE) 17:52:06 437.250
KKS-1 27 Jun 17:49:51 17:54:01 36° 97° (E) 17:58:08 437.445
XW-2C 27 Jun 17:49:57 17:53:19 29° 67° (ENE) 17:56:40 145.795 - 145.815
KAITUO 1B 27 Jun 17:58:26 18:01:42 28° 67° (ENE) 18:04:58 145.475/437.950
PCSat 27 Jun 18:05:34 18:08:40 15° 14° (NNE) 18:11:45 145.827
MOZHAYETS 4 27 Jun 18:10:09 18:13:56 26° 297° (WNW) 18:17:42
STARS 27 Jun 18:13:14 18:17:05 28° 95° (E) 18:20:55 437.465
NUDT-PHONESAT 27 Jun 18:30:14 18:33:57 60° 73° (ENE) 18:37:40 437.300
CUTE-I 27 Jun 18:41:48 18:47:09 89° 56° (ENE) 18:52:33 437.470
HO-68 27 Jun 18:42:22 18:49:04 44° 60° (ENE) 18:55:46 435.675
XW-2A 27 Jun 18:45:28 18:47:20 14° 61° (ENE) 18:49:12 145.665 - 145.685
UWE-3 27 Jun 18:45:51 18:47:02 11° 52° (NE) 18:48:14 435.000/436.395/437.385
XW-2F 27 Jun 18:53:10 18:56:57 61° 259° (W) 19:00:45 145.980 - 146.000
SEEDS 27 Jun 18:53:25 18:56:22 19° 61° (ENE) 18:59:20 437.485
ITUPSAT 1 27 Jun 18:53:29 18:54:48 11° 310° (NW) 18:56:07 437.325
CUBESAT XI-V 27 Jun 18:56:54 19:01:11 39° 293° (WNW) 19:05:26 437.345
XW-2D 27 Jun 18:58:56 19:02:40 49° 261° (W) 19:06:24 145.860 - 145.880
SO-50 27 Jun 18:59:08 19:01:19 13° 358° (N) 19:03:29 436.795
RS-15 27 Jun 19:04:35 19:08:19 12° 89° (E) 19:12:04 29.354- 29.394
XW-2B 27 Jun 19:08:08 19:11:46 40° 262° (W) 19:15:25 145.730 - 145.750
LilacSat-2 27 Jun 19:10:21 19:13:57 36° 263° (W) 19:17:32 437.200
CUTE 1.7 + AOD 2 27 Jun 19:14:10 19:18:10 41° 69° (ENE) 19:22:10 437.475
DOVE 4 27 Jun 19:23:01 19:25:54 18° 271° (W) 19:28:53 437.250
XW-2C 27 Jun 19:24:10 19:27:30 27° 265° (W) 19:30:50 145.795 - 145.815
KKS-1 27 Jun 19:26:33 19:30:29 31° 296° (WNW) 19:34:25 437.445
KAITUO 1B 27 Jun 19:32:24 19:35:40 28° 265° (W) 19:38:58 145.475/437.950
AO-73 27 Jun 19:33:18 19:35:59 16° 57° (ENE) 19:38:39 145.935
AAUSAT CUBESAT 2 27 Jun 19:36:45 19:40:05 24° 64° (ENE) 19:43:25 437.432
PCSat 27 Jun 19:48:48 19:53:45 34° 39° (NE) 19:58:40 145.827
STARS 27 Jun 19:49:23 19:53:30 38° 294° (WNW) 19:57:37 437.465
CUBEBUG 2 27 Jun 19:49:25 19:53:56 53° 70° (ENE) 19:58:35 437.445
Oscar 11 27 Jun 19:57:09 20:00:09 19° 60° (ENE) 20:03:08 .
NUDT-PHONESAT 27 Jun 20:06:19 20:08:13 13° 271° (W) 20:10:08 437.300
ZACube-1 27 Jun 20:08:04 20:12:07 32° 65° (ENE) 20:16:11 437.345
